Location: Melara
(45.0500°N, 11.1833°E)
Time: 20:52:29
(UTC+00:00)

Cosmos 1300 - Pass Details

Date: 26 May 2022
Orbit: 506 x 508 km, 82.5° (Epoch: 02 July)

Event Time Altitude Azimuth Distance (km) Brightness Sun altitude
Rises 00:57:23 0° 340° (NNW) 2,622 6.9 -19.7°
Reaches altitude 10° 00:59:44 10° 328° (NNW) 1,731 5.8 -19.5°
Enters shadow 01:02:46 27° 275° (W) 1,006 3.9 -19.2°
